MDT3 ENTC-ENSB

Flight info

Callsign MDT3
Flight time 1h 22m
Altitude 39000
Route LOMVI P600 PITOL/N0471F410 P600 INPAR
Aircraft CL60/M-SBDE1E2E3FGHIJ1J4J5J7M3RWXYZ/LB1V1D1

Departure

Time 2026-05-05 20:12
Airport Tromsø Airport (ENTC)

Arrival

Time 2026-05-05 21:35
Airport Svalbard Airport, Longyear (ENSB)
Time Latitude Longitude Altitude Speed Heading
2026-05-05 19:52 69.68361 18.91199 -4 ft 0 kts 276°
2026-05-05 20:07 69.68362 18.91193 -5 ft 1 kts 268°
2026-05-05 20:08 69.68349 18.91204 -5 ft 4 kts 89°
2026-05-05 20:08 69.68359 18.91289 -5 ft 0 kts 85°
2026-05-05 20:09 69.68358 18.91301 -5 ft 2 kts 96°
2026-05-05 20:10 69.68349 18.91390 -4 ft 6 kts 107°
2026-05-05 20:10 69.68322 18.91490 -1 ft 6 kts 169°
2026-05-05 20:10 69.68261 18.91452 -1 ft 11 kts 193°
2026-05-05 20:10 69.68174 18.91394 1 ft 14 kts 193°
2026-05-05 20:11 69.68098 18.91355 2 ft 11 kts 162°
2026-05-05 20:11 69.68064 18.91544 5 ft 10 kts 109°
2026-05-05 20:11 69.68066 18.91714 9 ft 8 kts 21°
2026-05-05 20:11 69.68076 18.91722 9 ft 0 kts 14°
2026-05-05 20:12 69.68307 18.91876 4 ft 96 kts 13°
2026-05-05 20:12 69.69290 18.92552 267 ft 178 kts 17°
2026-05-05 20:12 69.70442 18.93477 1607 ft 183 kts 19°
2026-05-05 20:12 69.71600 18.94246 3325 ft 178 kts 13°
2026-05-05 20:13 69.72741 18.94811 4784 ft 176 kts 11°
2026-05-05 20:13 69.73936 18.95416 5955 ft 182 kts 14°
2026-05-05 20:13 69.75139 18.96323 7140 ft 185 kts 18°
2026-05-05 20:13 69.76403 18.96900 8130 ft 197 kts
2026-05-05 20:14 69.77793 18.96586 9034 ft 215 kts 351°
2026-05-05 20:14 69.79332 18.95781 9938 ft 238 kts 352°
2026-05-05 20:14 69.80987 18.94937 11054 ft 251 kts 349°
2026-05-05 20:14 69.82701 18.93933 12235 ft 260 kts 347°
2026-05-05 20:15 69.84468 18.92818 13474 ft 264 kts 347°
2026-05-05 20:15 69.86261 18.91699 14537 ft 273 kts 347°
2026-05-05 20:15 69.88152 18.90533 15279 ft 292 kts 347°
2026-05-05 20:15 69.90161 18.89329 16214 ft 302 kts 347°
2026-05-05 20:16 69.92264 18.88185 16834 ft 322 kts 347°
2026-05-05 20:16 69.94589 18.86955 16958 ft 353 kts 348°
2026-05-05 20:16 69.97052 18.85663 17516 ft 369 kts 348°
2026-05-05 20:16 69.99614 18.84322 18327 ft 377 kts 348°
2026-05-05 20:17 70.02177 18.82982 19170 ft 382 kts 347°
2026-05-05 20:17 70.04781 18.81617 19993 ft 387 kts 348°
2026-05-05 20:17 70.07443 18.80222 20840 ft 389 kts 348°
2026-05-05 20:17 70.10129 18.78813 21625 ft 393 kts 348°
2026-05-05 20:18 70.12811 18.77403 22345 ft 396 kts 348°
2026-05-05 20:18 70.15504 18.75984 23023 ft 400 kts 349°
2026-05-05 20:18 70.18265 18.74527 23694 ft 403 kts 349°
2026-05-05 20:18 70.21021 18.73070 24328 ft 407 kts 349°
2026-05-05 20:19 70.23803 18.71597 24943 ft 409 kts 349°
2026-05-05 20:19 70.26582 18.70120 25513 ft 412 kts 350°
2026-05-05 20:19 70.29408 18.68616 26109 ft 412 kts 350°
2026-05-05 20:19 70.32179 18.67136 26719 ft 411 kts 350°
2026-05-05 20:20 70.35008 18.65622 27249 ft 410 kts 350°
2026-05-05 20:20 70.37807 18.64120 27752 ft 409 kts 350°
2026-05-05 20:20 70.40595 18.62621 28226 ft 409 kts 350°
2026-05-05 20:20 70.43406 18.61293 28680 ft 409 kts 353°
2026-05-05 20:21 70.46185 18.60174 29115 ft 408 kts 353°
2026-05-05 20:21 70.48988 18.59041 29525 ft 408 kts 353°
2026-05-05 20:21 70.51783 18.57905 29929 ft 408 kts 353°
2026-05-05 20:21 70.54580 18.56766 30328 ft 407 kts 353°
2026-05-05 20:22 70.57386 18.55620 30716 ft 407 kts 353°
2026-05-05 20:22 70.60150 18.54487 31041 ft 407 kts 353°
2026-05-05 20:22 70.62955 18.53334 31283 ft 407 kts 353°
2026-05-05 20:22 70.65772 18.52173 31503 ft 409 kts 353°
2026-05-05 20:23 70.68580 18.51012 31701 ft 410 kts 353°
2026-05-05 20:23 70.71389 18.49847 31905 ft 411 kts 353°
2026-05-05 20:23 70.74195 18.48680 32093 ft 412 kts 353°
2026-05-05 20:23 70.77010 18.47506 32295 ft 413 kts 353°
2026-05-05 20:24 70.79866 18.46311 32507 ft 414 kts 353°
2026-05-05 20:24 70.82719 18.45114 32709 ft 415 kts 353°
2026-05-05 20:24 70.85541 18.43926 32902 ft 416 kts 353°
2026-05-05 20:24 70.88412 18.42714 33089 ft 416 kts 353°
2026-05-05 20:25 70.91282 18.41499 33265 ft 418 kts 353°
2026-05-05 20:25 70.94130 18.40291 33491 ft 418 kts 353°
2026-05-05 20:25 70.96999 18.39068 33749 ft 418 kts 353°
2026-05-05 20:25 70.99838 18.37855 34015 ft 417 kts 353°
2026-05-05 20:26 71.02702 18.36628 34270 ft 417 kts 353°
2026-05-05 20:26 71.05552 18.35404 34516 ft 416 kts 353°
2026-05-05 20:26 71.08426 18.34165 34749 ft 416 kts 352°
2026-05-05 20:26 71.11268 18.32937 34971 ft 416 kts 352°
2026-05-05 20:27 71.14123 18.31699 35182 ft 416 kts 352°
2026-05-05 20:27 71.16988 18.30453 35381 ft 416 kts 352°
2026-05-05 20:27 71.19850 18.29205 35572 ft 417 kts 352°
2026-05-05 20:27 71.22716 18.27951 35756 ft 417 kts 352°
2026-05-05 20:28 71.25570 18.26700 35929 ft 417 kts 352°
2026-05-05 20:28 71.28425 18.25444 36098 ft 417 kts 352°
2026-05-05 20:28 71.31259 18.24193 36255 ft 418 kts 352°
2026-05-05 20:28 71.34147 18.22914 36404 ft 418 kts 352°
2026-05-05 20:29 71.37018 18.21640 36547 ft 419 kts 352°
2026-05-05 20:29 71.39891 18.20360 36686 ft 419 kts 352°
2026-05-05 20:29 71.42749 18.19083 36822 ft 419 kts 352°
2026-05-05 20:29 71.45632 18.17792 36960 ft 419 kts 352°
2026-05-05 20:30 71.48499 18.16503 37094 ft 419 kts 352°
2026-05-05 20:30 71.51396 18.15198 37223 ft 420 kts 352°
2026-05-05 20:30 71.54290 18.13889 37343 ft 420 kts 352°
2026-05-05 20:30 71.57182 18.12577 37457 ft 420 kts 352°
2026-05-05 20:31 71.60076 18.11260 37593 ft 421 kts 352°
2026-05-05 20:31 71.62984 18.09933 37740 ft 420 kts 352°
2026-05-05 20:31 71.65853 18.08620 37880 ft 420 kts 352°
2026-05-05 20:31 71.68736 18.07296 38012 ft 420 kts 352°
2026-05-05 20:32 71.71587 18.05983 38136 ft 420 kts 352°
2026-05-05 20:32 71.74458 18.04656 38254 ft 420 kts 352°
2026-05-05 20:32 71.77351 18.03316 38368 ft 420 kts 352°
2026-05-05 20:32 71.80244 18.01970 38481 ft 420 kts 352°
2026-05-05 20:33 71.83115 18.00632 38588 ft 421 kts 352°
2026-05-05 20:33 71.85997 17.99284 38695 ft 421 kts 352°
2026-05-05 20:33 71.88895 17.97924 38798 ft 421 kts 352°
2026-05-05 20:33 71.91769 17.96571 38902 ft 421 kts 352°
2026-05-05 20:34 71.94627 17.95221 38998 ft 421 kts 352°
2026-05-05 20:34 72.00424 17.92471 39171 ft 421 kts 352°
2026-05-05 20:35 72.06181 17.89723 39333 ft 421 kts 352°
2026-05-05 20:35 72.11929 17.86961 39496 ft 421 kts 352°
2026-05-05 20:36 72.17714 17.84165 39655 ft 421 kts 352°
2026-05-05 20:36 72.23454 17.81371 39793 ft 421 kts 353°
2026-05-05 20:37 72.29256 17.78531 39812 ft 424 kts 352°
2026-05-05 20:37 72.35072 17.75664 39826 ft 427 kts 353°
2026-05-05 20:38 72.40916 17.72765 39824 ft 430 kts 353°
2026-05-05 20:38 72.46817 17.69818 39828 ft 433 kts 353°
2026-05-05 20:39 72.52773 17.66823 39833 ft 435 kts 353°
2026-05-05 20:39 72.58728 17.63809 39830 ft 438 kts 353°
2026-05-05 20:40 72.64723 17.60753 39840 ft 439 kts 353°
2026-05-05 20:40 72.70776 17.57647 39843 ft 441 kts 353°
2026-05-05 20:41 72.76841 17.54514 39842 ft 443 kts 353°
2026-05-05 20:41 72.82896 17.51363 39852 ft 445 kts 353°
2026-05-05 20:42 72.89001 17.48165 39853 ft 446 kts 353°
2026-05-05 20:42 72.95132 17.44930 39859 ft 447 kts 353°
2026-05-05 20:43 73.01262 17.41672 39862 ft 448 kts 353°
2026-05-05 20:43 73.07378 17.38399 39861 ft 449 kts 353°
2026-05-05 20:44 73.13566 17.35063 39868 ft 450 kts 353°
2026-05-05 20:44 73.19700 17.31733 39879 ft 451 kts 352°
2026-05-05 20:45 73.28960 17.26659 39877 ft 452 kts 352°
2026-05-05 20:45 73.35156 17.23234 39879 ft 452 kts 352°
2026-05-05 20:46 73.41356 17.19780 39890 ft 453 kts 352°
2026-05-05 20:46 73.47538 17.16312 39905 ft 453 kts 352°
2026-05-05 20:47 73.53752 17.12799 39897 ft 453 kts 352°
2026-05-05 20:47 73.59931 17.09281 39905 ft 453 kts 352°
2026-05-05 20:48 73.66157 17.05709 39901 ft 454 kts 352°
2026-05-05 20:48 73.72406 17.02096 39911 ft 453 kts 352°
2026-05-05 20:49 73.78604 16.98486 39911 ft 453 kts 352°
2026-05-05 20:49 73.84782 16.94862 39918 ft 453 kts 352°
2026-05-05 20:50 73.89973 16.91797 39928 ft 453 kts 352°
2026-05-05 20:50 73.97160 16.87520 39932 ft 453 kts 352°
2026-05-05 20:51 74.03381 16.83787 39929 ft 454 kts 352°
2026-05-05 20:51 74.09588 16.80034 39928 ft 454 kts 352°
2026-05-05 20:52 74.15781 16.76259 39934 ft 454 kts 352°
2026-05-05 20:52 74.21971 16.72457 39943 ft 453 kts 352°
2026-05-05 20:53 74.28166 16.68622 39941 ft 454 kts 352°
2026-05-05 20:53 74.34336 16.64772 39938 ft 454 kts 352°
2026-05-05 20:54 74.40533 16.60877 39933 ft 454 kts 352°
2026-05-05 20:54 74.46742 16.56942 39938 ft 454 kts 352°
2026-05-05 20:55 74.52907 16.53004 39947 ft 454 kts 352°
2026-05-05 20:55 74.59128 16.48999 39947 ft 454 kts 352°
2026-05-05 20:56 74.65323 16.44979 39951 ft 454 kts 352°
2026-05-05 20:56 74.71551 16.40905 39951 ft 455 kts 352°
2026-05-05 20:57 74.77747 16.36819 39958 ft 455 kts 352°
2026-05-05 20:57 74.83928 16.32710 39964 ft 454 kts 351°
2026-05-05 20:58 74.90118 16.28561 39963 ft 454 kts 351°
2026-05-05 20:58 74.96324 16.24369 39967 ft 454 kts 351°
2026-05-05 20:59 75.02552 16.20127 39980 ft 454 kts 351°
2026-05-05 20:59 75.08694 16.15909 40001 ft 453 kts 351°
2026-05-05 21:00 75.14888 16.11621 40002 ft 454 kts 351°
2026-05-05 21:00 75.21072 16.07303 40006 ft 454 kts 351°
2026-05-05 21:01 75.27272 16.02939 40017 ft 454 kts 351°
2026-05-05 21:01 75.33460 15.98546 40018 ft 454 kts 351°
2026-05-05 21:02 75.39651 15.94115 40011 ft 454 kts 351°
2026-05-05 21:02 75.45851 15.89639 40024 ft 454 kts 351°
2026-05-05 21:03 75.51997 15.85166 40044 ft 454 kts 351°
2026-05-05 21:03 75.58170 15.80636 40036 ft 454 kts 351°
2026-05-05 21:04 75.64379 15.76158 40051 ft 453 kts 354°
2026-05-05 21:04 75.70618 15.74024 40049 ft 453 kts 356°
2026-05-05 21:05 75.76849 15.72039 40068 ft 453 kts 357°
2026-05-05 21:05 75.83122 15.70011 40062 ft 453 kts 356°
2026-05-05 21:06 75.89360 15.67967 40067 ft 453 kts 356°
2026-05-05 21:06 75.95618 15.65907 40078 ft 453 kts 356°
2026-05-05 21:07 76.01844 15.63845 40066 ft 453 kts 356°
2026-05-05 21:07 76.08137 15.61746 40060 ft 454 kts 356°
2026-05-05 21:08 76.14381 15.59649 40068 ft 454 kts 356°
2026-05-05 21:08 76.20334 15.57634 40074 ft 454 kts 357°
2026-05-05 21:09 76.26592 15.55499 40076 ft 454 kts 357°
2026-05-05 21:09 76.29750 15.54415 39882 ft 460 kts 357°
2026-05-05 21:09 76.32981 15.53303 39331 ft 473 kts 357°
2026-05-05 21:10 76.36294 15.52158 38753 ft 486 kts 357°
2026-05-05 21:10 76.39683 15.50982 38080 ft 498 kts 357°
2026-05-05 21:10 76.43145 15.49770 37455 ft 495 kts 357°
2026-05-05 21:10 76.46548 15.48566 36870 ft 490 kts 357°
2026-05-05 21:11 76.49909 15.47374 36131 ft 488 kts 357°
2026-05-05 21:11 76.53234 15.46189 35526 ft 483 kts 357°
2026-05-05 21:11 76.56569 15.44994 34870 ft 479 kts 357°
2026-05-05 21:11 76.59830 15.43821 34251 ft 474 kts 357°
2026-05-05 21:12 76.63094 15.42641 33623 ft 469 kts 357°
2026-05-05 21:12 76.66281 15.41484 33048 ft 465 kts 357°
2026-05-05 21:12 76.69518 15.40304 32385 ft 463 kts 357°
2026-05-05 21:12 76.72694 15.39142 31807 ft 459 kts 357°
2026-05-05 21:13 76.75836 15.37987 31190 ft 457 kts 357°
2026-05-05 21:13 76.79002 15.36818 30537 ft 454 kts 357°
2026-05-05 21:13 76.82126 15.35658 29940 ft 446 kts 357°
2026-05-05 21:13 76.85156 15.34527 29375 ft 440 kts 356°
2026-05-05 21:14 76.88142 15.33410 28815 ft 433 kts 356°
2026-05-05 21:14 76.91136 15.32283 28238 ft 427 kts 356°
2026-05-05 21:14 76.94037 15.31188 27685 ft 421 kts 356°
2026-05-05 21:14 76.96916 15.30096 27137 ft 414 kts 356°
2026-05-05 21:15 76.99743 15.29020 26650 ft 406 kts 356°
2026-05-05 21:15 77.02489 15.27968 26271 ft 395 kts 356°
2026-05-05 21:15 77.05193 15.26931 25748 ft 389 kts 356°
2026-05-05 21:15 77.07848 15.25910 25268 ft 382 kts 357°
2026-05-05 21:16 77.10458 15.24903 24735 ft 376 kts 356°
2026-05-05 21:16 77.13038 15.23901 24234 ft 369 kts 357°
2026-05-05 21:16 77.15559 15.22921 23737 ft 363 kts 357°
2026-05-05 21:16 77.18028 15.21959 23255 ft 357 kts 357°
2026-05-05 21:17 77.20481 15.20997 22772 ft 350 kts 358°
2026-05-05 21:17 77.22868 15.20055 22301 ft 343 kts 358°
2026-05-05 21:17 77.25188 15.19136 21857 ft 336 kts 358°
2026-05-05 21:17 77.27493 15.18221 21425 ft 329 kts 358°
2026-05-05 21:18 77.29758 15.17319 20991 ft 323 kts 358°
2026-05-05 21:18 77.31951 15.16443 20574 ft 316 kts 358°
2026-05-05 21:18 77.34118 15.15575 20155 ft 310 kts 358°
2026-05-05 21:18 77.36216 15.14733 19757 ft 304 kts 358°
2026-05-05 21:19 77.38294 15.13887 19357 ft 298 kts 358°
2026-05-05 21:19 77.40339 15.13041 18963 ft 292 kts 358°
2026-05-05 21:19 77.42327 15.12220 18579 ft 287 kts 359°
2026-05-05 21:19 77.44302 15.11405 18193 ft 282 kts 358°
2026-05-05 21:20 77.46217 15.10615 17816 ft 278 kts 359°
2026-05-05 21:20 77.48118 15.09831 17452 ft 273 kts 359°
2026-05-05 21:20 77.50001 15.09053 17092 ft 269 kts 359°
2026-05-05 21:20 77.51852 15.08294 16745 ft 272 kts 359°
2026-05-05 21:21 77.53838 15.07511 16369 ft 313 kts 359°
2026-05-05 21:21 77.56127 15.06596 15934 ft 341 kts 358°
2026-05-05 21:21 77.58498 15.05602 15483 ft 342 kts 358°
2026-05-05 21:21 77.60847 15.04608 15056 ft 341 kts 358°
2026-05-05 21:22 77.63187 15.03618 14607 ft 339 kts 358°
2026-05-05 21:22 77.65514 15.02630 14173 ft 336 kts 358°
2026-05-05 21:22 77.67790 15.01661 13768 ft 331 kts 358°
2026-05-05 21:22 77.70062 15.00690 13334 ft 322 kts 358°
2026-05-05 21:23 77.72247 14.99754 12949 ft 314 kts 358°
2026-05-05 21:23 77.74415 14.98825 12537 ft 307 kts 358°
2026-05-05 21:23 77.76497 14.97930 12136 ft 298 kts 358°
2026-05-05 21:23 77.78507 14.97064 11749 ft 289 kts 358°
2026-05-05 21:24 77.80490 14.96210 11357 ft 283 kts 359°
2026-05-05 21:24 77.82430 14.95374 10939 ft 276 kts 359°
2026-05-05 21:24 77.84308 14.94561 10598 ft 269 kts 359°
2026-05-05 21:24 77.86148 14.93766 10236 ft 264 kts 359°
2026-05-05 21:25 77.87961 14.92984 9863 ft 261 kts 359°
2026-05-05 21:25 77.89780 14.92198 9525 ft 261 kts 359°
2026-05-05 21:25 77.91556 14.91429 9170 ft 259 kts 359°
2026-05-05 21:25 77.93328 14.90652 8835 ft 253 kts 360°
2026-05-05 21:26 77.95073 14.89885 8494 ft 247 kts
2026-05-05 21:26 77.96742 14.89150 8168 ft 242 kts
2026-05-05 21:26 77.98386 14.88424 7851 ft 236 kts
2026-05-05 21:26 78.00008 14.87707 7439 ft 235 kts
2026-05-05 21:27 78.01645 14.86992 7020 ft 230 kts
2026-05-05 21:27 78.03192 14.86292 6774 ft 222 kts
2026-05-05 21:27 78.04693 14.85625 6479 ft 216 kts
2026-05-05 21:27 78.06180 14.84961 6200 ft 215 kts 360°
2026-05-05 21:28 78.07661 14.84002 5962 ft 213 kts 356°
2026-05-05 21:28 78.09110 14.82791 5682 ft 213 kts 355°
2026-05-05 21:28 78.10540 14.81597 5380 ft 206 kts 355°
2026-05-05 21:28 78.11948 14.80424 5110 ft 206 kts 355°
2026-05-05 21:29 78.13352 14.79252 4862 ft 204 kts 355°
2026-05-05 21:29 78.14755 14.78080 4583 ft 204 kts 355°
2026-05-05 21:29 78.16150 14.76911 4325 ft 204 kts 354°
2026-05-05 21:29 78.17527 14.75753 4057 ft 202 kts 354°
2026-05-05 21:30 78.18921 14.74722 3801 ft 202 kts 358°
2026-05-05 21:30 78.20313 14.74696 3532 ft 200 kts
2026-05-05 21:30 78.21664 14.76018 3265 ft 198 kts 19°
2026-05-05 21:30 78.22927 14.78643 3001 ft 197 kts 30°
2026-05-05 21:31 78.24040 14.82373 2754 ft 196 kts 40°
2026-05-05 21:31 78.24989 14.87127 2475 ft 190 kts 50°
2026-05-05 21:31 78.25674 14.92278 2260 ft 169 kts 60°
2026-05-05 21:31 78.26105 14.97146 2059 ft 144 kts 68°
2026-05-05 21:32 78.26358 15.01662 1930 ft 130 kts 75°
2026-05-05 21:32 78.26483 15.05997 1692 ft 123 kts 83°
2026-05-05 21:32 78.26494 15.10023 1535 ft 117 kts 89°
2026-05-05 21:32 78.26408 15.14021 1371 ft 117 kts 99°
2026-05-05 21:33 78.26208 15.17828 1208 ft 117 kts 108°
2026-05-05 21:33 78.25971 15.21641 1008 ft 115 kts 101°
2026-05-05 21:33 78.25776 15.25381 783 ft 114 kts 102°
2026-05-05 21:33 78.25569 15.29133 549 ft 112 kts 104°
2026-05-05 21:34 78.25373 15.32831 339 ft 110 kts 103°
2026-05-05 21:34 78.25172 15.36411 191 ft 109 kts 103°
2026-05-05 21:34 78.24975 15.40036 88 ft 110 kts 103°
2026-05-05 21:34 78.24785 15.43514 6 ft 96 kts 104°
2026-05-05 21:35 78.24634 15.46196 5 ft 57 kts 104°
2026-05-05 21:35 78.24545 15.47792 4 ft 47 kts 105°
2026-05-05 21:35 78.24498 15.48610 4 ft 17 kts 104°
2026-05-05 21:35 78.24470 15.49099 4 ft 7 kts 106°
2026-05-05 21:36 78.24465 15.49370 4 ft 9 kts 49°
2026-05-05 21:36 78.24537 15.49468 4 ft 13 kts 12°
2026-05-05 21:36 78.24567 15.49485 4 ft 0 kts 359°
2026-05-05 21:38 78.24607 15.49506 4 ft 10 kts 15°
2026-05-05 21:38 78.24628 15.49453 4 ft 0 kts 280°